Location: Alten
(47.5985°N, 8.6470°E)
Time: 00:00:17
(UTC+00:00)

Daily predictions for brighter satellites

Satellite Brightness Start Highest point End
(mag) Time Altitude Azimuth Time Altitude Azimuth Time Altitude Azimuth
STARLINK-1209 3.9 00:00:06 10° WNW 00:03:11 47° NNE 00:06:15 10° E
STARLINK-1247 4.3 00:00:47 10° NW 00:03:46 39° NNE 00:06:44 10° E
STARLINK-1227 4.3 00:01:15 10° NW 00:04:13 39° NNE 00:07:09 10° E
ATLAS CENTAUR R/B 3.5 00:02:51 10° NNW 00:04:48 23° NNE 00:07:59 10° E
STARLINK-1226 4.2 00:02:07 10° NW 00:05:04 40° NNE 00:08:03 10° E
STARLINK-1215 4.2 00:03:02 10° NW 00:06:02 40° NNE 00:09:00 10° E
Nadezhda 2 Rocket 4.5 00:04:33 36° S 00:07:09 74° E 00:13:16 10° NNE
STARLINK-1217 4.2 00:04:48 10° NW 00:07:48 41° NNE 00:10:47 10° E
STARLINK-1229 4.2 00:05:44 10° NW 00:08:43 41° NNE 00:11:43 10° E
STARLINK-1270 4.2 00:06:35 10° NW 00:09:35 41° NNE 00:12:35 10° E
GEOS 3 Rocket 3.5 00:07:39 30° SE 00:10:21 82° SW 00:15:41 10° NW
Cosmos 1726 3.4 00:07:47 10° NNW 00:10:54 27° W 00:10:54 27° W
STARLINK-1189 4.1 00:08:26 10° NW 00:11:26 42° NNE 00:14:26 10° E
Cosmos 2058 Rocket 3.3 00:07:54 10° N 00:12:17 64° ENE 00:13:46 39° SE
STARLINK-1188 4.1 00:09:19 10° NW 00:12:19 43° NNE 00:15:20 10° E
STARLINK-1235 3.8 00:10:01 10° WNW 00:13:02 49° NNE 00:16:04 10° E
STARLINK-1187 3.9 00:10:26 10° WNW 00:13:26 46° NNE 00:16:26 10° E
Meteor 1-29 2.8 00:10:03 10° NNE 00:13:27 79° ESE 00:13:32 78° SE
COSMOS 2455 2.9 00:11:39 38° S 00:13:58 69° ESE 00:19:59 10° NE
STARLINK-1191 4.0 00:11:48 10° NW 00:14:47 43° NNE 00:17:46 10° E
Cosmos 2228 3.0 00:10:35 10° NNW 00:14:49 64° W 00:15:32 53° SW
STARLINK-1221 4.0 00:12:40 10° NW 00:15:40 44° NNE 00:18:39 10° E
SJ 16-02 4.0 00:12:44 10° N 00:15:44 17° NE 00:18:43 10° E
STARLINK-1222 4.0 00:13:33 10° WNW 00:16:34 44° NNE 00:19:33 10° E
STARLINK-1214 4.0 00:14:28 10° WNW 00:17:28 45° NNE 00:20:28 10° E
Cosmos 1953 3.9 00:16:06 10° NW 00:19:12 22° W 00:19:26 22° W
SL-14 R/B 3.6 00:18:39 45° SE 00:19:22 52° E 00:23:09 10° NNE
IRAS Rocket 4.2 00:17:53 32° SSE 00:20:37 88° ENE 00:26:14 10° NNW
Cosmos 1340 Rocket 4.0 00:17:27 10° NNW 00:20:55 28° W 00:21:08 28° W
Okean 1-7 Rocket 3.6 00:22:03 46° SSE 00:23:19 73° E 00:27:48 10° NNE
Cosmos 1174 3.3 00:23:33 70° ESE 00:23:33 70° ESE 00:27:06 10° NE
Cosmos 1300 3.0 00:20:16 10° N 00:24:04 59° ENE 00:25:04 42° SE
Cosmos 921 Rocket 3.9 00:23:34 32° SE 00:24:39 38° ESE 00:28:39 10° NE
BREEZE M DEB (TANK) 3.0 00:26:49 38° ENE 00:26:49 38° ENE 00:29:01 10° E
COSMOS 2487 3.1 00:24:24 10° NW 00:27:18 39° W 00:27:18 39° W
Cosmos 2219 4.3 00:27:15 10° NNW 00:32:41 44° NE 00:38:03 10° SE
Cosmos 1626 2.0 00:34:31 60° S 00:35:08 85° E 00:38:53 10° N
STARLINK-60 3.1 00:36:27 59° ESE 00:36:27 59° ESE 00:39:18 10° ENE
Cosmos 1656 Rocket 4.3 00:33:52 25° WSW 00:36:55 48° NW 00:42:19 10° NNE
Cosmos 1606 Rocket 4.3 00:34:08 10° NNW 00:38:05 36° W 00:38:48 33° WSW
FALCON 9 R/B 3.6 00:38:25 29° SSW 00:41:11 37° SSE 00:58:22 10° ESE
Nadezhda 1 Rocket 4.1 00:35:27 10° N 00:41:37 71° E 00:45:52 21° SSE
MOZ.5/SAFIR/RUBIN 5/SL-8 3.8 00:44:16 29° SSE 00:46:38 79° ENE 00:51:17 10° NNW
UNK 4.2 00:44:00 21° SE 00:46:56 60° ENE 00:51:28 10° N
Cosmos 2297 Rocket 3.2 00:42:54 10° NNW 00:48:22 46° NE 00:53:47 10° SE
SL-4 R/B 2.3 00:49:12 35° SW 00:51:10 73° SSE 00:55:54 10° ENE
Cosmos 1812 Rocket 4.4 00:47:07 10° N 00:51:30 49° ENE 00:54:30 19° SE
Cosmos 1437 2.4 00:52:48 73° SSE 00:52:59 79° E 00:56:00 10° NNE
STARLINK-1233 4.4 00:49:59 10° WNW 00:54:04 52° NNE 00:58:07 10° E
Cosmos 1674 4.3 00:53:21 20° W 00:54:13 22° WNW 00:57:12 10° NNW
SL-19 R/B 4.3 00:51:53 10° N 00:57:14 68° WNW 01:00:03 30° SW
ATLAS CENTAUR R/B 1.6 00:56:56 34° WSW 00:58:43 66° NW 01:02:50 10° NNE
STARLINK-1204 4.4 00:54:58 10° WNW 00:59:04 54° NNE 01:03:08 10° E
Cosmos 1777 Rocket 4.3 00:54:50 10° NNW 00:59:52 49° WSW 01:01:54 32° SSW
Timation 2 Rocket 3.9 00:54:00 10° NNW 01:00:19 66° WSW 01:04:30 21° S
SL-16 R/B 2.5 00:56:01 19° SSE 01:00:42 88° ENE 01:06:55 10° NNW
NOSS 3-4 (A) 4.0 00:57:31 19° WSW 01:01:47 55° NW 01:08:08 10° NE
NOSS 3-4 (C) 3.9 00:57:37 19° WSW 01:01:53 55° NW 01:08:15 10° NE
BREEZE-M R/B 3.3 01:01:08 36° SSW 01:02:08 43° SSE 01:05:08 10° E
FALCON 9 DEB 3.9 01:02:08 36° SSE 01:02:15 36° SE 01:05:27 10° ENE
Cosmos 1602 Rocket 3.8 01:01:57 30° SSE 01:03:57 64° E 01:08:15 10° NNE
STARLINK-1238 4.3 00:59:56 10° WNW 01:04:02 57° NNE 01:08:07 10° E
STARLINK-29 3.0 01:04:34 56° SSE 01:04:47 57° SSE 01:07:56 10° ENE
Cosmos 1455 3.5 01:02:56 10° N 01:06:27 36° ENE 01:09:23 13° SE
ATLAS 3B R/B 2.9 01:01:02 10° NW 01:07:34 51° WSW 01:12:43 18° S
BREEZE-M DEB (TANK) 4.1 01:09:30 13° ESE 01:09:30 13° ESE 01:10:05 10° E
STARLINK-1201 4.2 01:04:56 10° WNW 01:09:03 59° NNE 01:13:09 10° ESE
CENTAUR R/B 4.0 01:04:15 10° NW 01:11:11 31° WSW 01:14:47 23° SSW
GP-B 4.1 01:08:31 10° NNE 01:12:46 42° E 01:16:10 15° SSE
BREEZE-M DEB (TANK) 1.1 01:12:39 47° W 01:13:14 79° NNW 01:15:32 10° ENE
Meteor 2-1 Rocket 4.2 01:08:18 10° N 01:13:50 87° ENE 01:18:04 18° SSE
STARLINK-1206 4.1 01:09:55 10° WNW 01:14:03 62° NNE 01:18:09 10° ESE
Cosmos-2242 4.3 01:12:03 10° N 01:16:03 38° ENE 01:20:01 10° SE
Cosmos 1745 Rocket 4.0 01:12:45 26° SSW 01:16:25 76° W 01:22:35 10° N
STARLINK-1205 4.0 01:14:54 10° WNW 01:19:01 65° NNE 01:23:09 10° ESE
RESURS DK-1 2.6 01:19:17 30° SW 01:21:07 61° WNW 01:25:14 10° NNE
STARLINK-1218 3.9 01:19:52 10° WNW 01:24:01 69° NNE 01:28:08 10° ESE
Cosmos 2227 Rocket 2.4 01:18:22 10° NNW 01:24:05 72° ENE 01:29:44 10° SE
Cosmos 1356 Rocket 3.7 01:20:05 10° NNW 01:24:06 50° W 01:25:49 30° SSW
Meteor 1-24 Rocket 4.4 01:22:03 23° SW 01:24:50 38° WNW 01:29:52 10° N
Cosmos 2369 Rocket 4.5 01:23:28 10° WNW 01:26:50 16° NW 01:30:12 10° N
CZ-2D R/B 2.1 01:21:43 10° NNE 01:27:01 83° WNW 01:30:15 24° SSW
Cosmos 1763 Rocket 4.4 01:23:45 16° SSE 01:27:22 40° ESE 01:32:06 10° NE
Cosmos 1697 Rocket 4.1 01:23:12 12° SSE 01:27:37 31° ESE 01:32:31 10° NE
STARLINK-1254 3.8 01:24:51 10° WNW 01:29:00 73° NNE 01:33:08 10° ESE
Cosmos 1703 4.3 01:26:47 16° SSE 01:29:35 40° E 01:33:19 10° NNE
ADEOS II 3.0 01:24:38 10° NNE 01:29:40 44° E 01:34:07 13° SSE
ATLAS 2AS CENTAUR R/B 3.8 01:23:17 10° WSW 01:30:57 46° NW 01:38:29 10° NE
CZ-4C R/B 4.1 01:30:46 28° SW 01:32:20 39° W 01:36:25 10° NNW
STARLINK-1231 3.7 01:29:51 10° WNW 01:34:00 77° NNE 01:38:09 10° ESE
STARLINK-1228 3.4 01:32:30 10° WNW 01:35:39 38° SW 01:38:46 10° SSE
Resurs 1-4 Rocket 2.2 01:31:29 10° N 01:36:45 68° WNW 01:40:11 22° SSW
STARLINK-1234 3.3 01:33:56 10° WNW 01:36:51 37° SW 01:37:03 37° SSW
STARLINK-1212 3.0 01:35:14 10° WNW 01:38:15 48° SW 01:41:16 10° SE
STARLINK-1105 3.0 01:35:42 10° WNW 01:38:42 48° SW 01:41:42 10° SE
STARLINK-1232 3.7 01:34:50 10° WNW 01:39:00 81° NNE 01:43:08 10° ESE
STARLINK-1209 3.6 01:36:12 10° WNW 01:38:42 33° WSW 01:38:42 33° WSW
STARLINK-1247 3.0 01:36:37 10° WNW 01:39:38 47° SW 01:42:39 10° SE
USA 81 4.0 01:36:19 21° SSW 01:39:52 75° W 01:45:11 10° N
STARLINK-1227 3.0 01:37:05 10° WNW 01:40:05 47° SW 01:43:03 10° SE
STARLINK-1226 3.0 01:37:57 10° WNW 01:40:57 46° SW 01:43:56 10° SE
STARLINK-52 2.9 01:39:41 29° WSW 01:41:12 84° NNW 01:44:25 10° ENE
ARIANE 5 R/B 3.8 01:37:06 10° NNE 01:41:44 35° E 01:46:18 10° SSE
STARLINK-1215 3.1 01:38:53 10° WNW 01:41:54 45° SW 01:44:53 10° SE
Cosmos 1758 Rocket 3.6 01:39:23 20° S 01:42:19 77° E 01:46:43 10° NNE
STARLINK-1217 3.1 01:40:39 10° WNW 01:43:39 44° SW 01:46:38 10° SE
STARLINK-1208 3.6 01:39:47 10° WNW 01:43:58 86° NNE 01:48:06 10° ESE
NPP 3.7 01:38:49 10° N 01:44:11 69° WNW 01:47:57 20° SSW
STARLINK-1229 3.1 01:41:35 10° WNW 01:44:34 43° SW 01:47:33 10° SE
H-2A R/B 4.0 01:41:14 10° SE 01:45:01 30° ENE 01:48:54 10° N
STARLINK-1270 3.1 01:42:27 10° WNW 01:45:26 42° SW 01:48:24 10° SE
STARLINK-1189 3.2 01:44:18 10° WNW 01:47:15 41° SW 01:50:13 10° SE
STARLINK-1188 3.2 01:45:11 10° WNW 01:48:09 40° SW 01:51:06 10° SE
STARLINK-1235 3.5 01:45:57 10° WNW 01:48:45 31° SW 01:51:33 10° SSE
STARLINK-1271 3.6 01:44:47 10° WNW 01:48:57 89° S 01:53:06 10° ESE
STARLINK-1187 3.4 01:46:20 10° WNW 01:49:12 35° SW 01:52:04 10° SSE
Cosmos 1898 Rocket 3.5 01:43:54 10° NNW 01:49:17 87° WSW 01:54:35 10° SSE
STARLINK-1191 3.3 01:47:41 10° WNW 01:50:36 38° SW 01:53:29 10° SSE
Starlink 7 placeholder 4.1 01:49:43 14° WNW 01:50:50 22° NNW 01:52:30 10° NE
Meteor 1-21 Rocket 4.2 01:46:49 19° SSW 01:50:53 74° WNW 01:56:35 10° N
Lacrosse 4 Rocket 3.0 01:46:52 10° NNW 01:51:00 39° NE 01:55:00 10° ESE
STARLINK-1221 3.3 01:48:32 10° WNW 01:51:27 37° SW 01:54:22 10° SSE
STARLINK-1222 3.3 01:49:27 10° WNW 01:52:21 37° SW 01:55:14 10° SSE
Cosmos 1656 3.7 01:48:20 19° SSW 01:52:31 82° ESE 01:58:11 10° NNE
STARLINK-1214 3.3 01:50:22 10° WNW 01:53:16 36° SW 01:56:08 10° SSE
STARLINK-1154 3.5 01:49:46 10° WNW 01:53:56 84° SSW 01:58:04 10° ESE
CZ-4C R/B 2.9 01:50:43 15° S 01:54:29 41° ESE 01:59:55 10° NE
Cosmos 2285 Rocket 4.2 01:48:20 10° NNW 01:54:46 75° ENE 02:01:05 10° SSE
SJ 16-02 1.3 01:50:22 10° NNW 01:54:46 64° WSW 01:59:09 10° S
IDEFIX/ARIANE 42P 4.5 01:50:39 10° NE 01:55:00 26° E 01:59:21 10° SSE
Cosmos 2084 3.7 01:52:18 20° SW 01:55:20 66° NW 01:59:49 10° NE
Cosmos 468 Rocket 4.0 01:52:22 18° SSW 01:56:12 83° ESE 02:01:22 10° NNE
Cosmos 1953 Rocket 3.9 01:54:38 12° S 01:58:39 64° E 02:03:04 10° NNE
STARLINK-1197 3.5 01:54:45 10° WNW 01:58:54 79° SSW 02:03:03 10° SE
Cosmos 1937 Rocket 3.6 01:54:17 10° NNW 01:59:32 85° ENE 02:04:49 10° SSE
COSMOS 2455 4.2 01:55:11 10° W 02:00:25 30° NW 02:05:42 10° NNE
Cosmos 2369 4.3 01:55:55 13° S 02:00:51 52° ESE 02:06:20 10° NE
Meteor 2-10 Rocket 3.7 01:56:24 10° NNW 02:01:36 53° W 02:06:00 13° SSW
STARLINK-1198 3.5 01:59:42 10° WNW 02:03:51 74° SSW 02:07:59 10° SE
Cosmos 1709 Rocket 4.2 02:01:48 16° SSW 02:06:37 57° WNW 02:12:40 10° N
STARLINK-1199 3.5 02:04:43 10° WNW 02:08:52 70° SSW 02:12:59 10° SE
STARLINK-60 4.4 02:09:25 10° W 02:12:25 36° NNW 02:15:26 10° ENE
STARLINK-1210 3.5 02:09:42 10° WNW 02:13:49 65° SSW 02:17:55 10° SE
STARLINK-1200 4.5 02:11:57 10° WNW 02:16:02 54° NNE 02:20:06 10° E
Cosmos 2219 3.9 02:11:39 10° NW 02:16:43 34° WSW 02:21:42 10° SSW
STARLINK-1320 2.8 02:14:52 18° SW 02:16:59 72° SSE 02:20:06 10° ENE
STARLINK-1322 2.8 02:15:11 18° SW 02:17:20 73° SSE 02:20:27 10° ENE
STARLINK-1324 2.8 02:15:32 18° SW 02:17:41 73° SSE 02:20:48 10° ENE
STARLINK-1294 2.8 02:15:47 18° SW 02:17:57 74° SSE 02:21:06 10° ENE
STARLINK-1261 2.8 02:16:09 18° SW 02:18:20 74° SSE 02:21:27 10° ENE
STARLINK-1325 2.8 02:16:30 18° SW 02:18:41 75° SSE 02:21:49 10° ENE
STARLINK-1219 3.6 02:14:41 10° WNW 02:18:47 60° SW 02:22:51 10° SE
STARLINK-1333 2.8 02:16:48 18° SW 02:19:00 75° SSE 02:22:07 10° ENE
STARLINK-1334 2.8 02:17:07 18° SW 02:19:20 75° SSE 02:22:28 10° ENE
STARLINK-1326 2.8 02:17:28 17° SW 02:19:41 76° SSE 02:22:49 10° ENE
Cosmos 1980 Rocket 3.2 02:14:33 10° S 02:19:47 42° ESE 02:25:05 10° NE
STARLINK-1323 2.8 02:17:47 17° SW 02:20:01 76° SSE 02:23:09 10° ENE
STARLINK-1338 3.2 02:17:39 17° SW 02:20:15 71° SSE 02:23:44 10° ENE
STARLINK-1349 2.8 02:18:06 17° SW 02:20:21 77° SSE 02:23:29 10° ENE
STARLINK-1336 2.8 02:18:28 17° SW 02:20:43 77° SSE 02:23:51 10° ENE
STARLINK-1192 4.4 02:16:56 10° WNW 02:21:02 56° NNE 02:25:07 10° E
STARLINK-1331 2.8 02:18:45 17° SW 02:21:02 78° SSE 02:24:09 10° ENE
STARLINK-1344 2.8 02:19:05 17° SW 02:21:22 78° SSE 02:24:30 10° ENE
STARLINK-1343 2.8 02:19:25 17° SW 02:21:43 79° SSE 02:24:50 10° ENE
STARLINK-1346 2.8 02:19:43 16° SW 02:22:04 79° SSE 02:25:14 10° ENE
CRYOSAT 2 4.4 02:17:28 10° N 02:22:20 66° W 02:27:11 10° SSW
STARLINK-1328 2.8 02:20:05 16° SW 02:22:24 80° SSE 02:25:32 10° ENE
CZ-4B R/B 4.5 02:20:46 10° E 02:22:24 14° ENE 02:24:03 10° NNE
Cosmos 1328 4.1 02:19:19 14° SSW 02:22:32 54° WNW 02:26:29 10° N
STARLINK-1354 2.8 02:20:22 16° SW 02:22:43 80° SSE 02:25:50 10° ENE
STARLINK-1347 2.8 02:20:44 16° WSW 02:23:05 81° SSE 02:26:12 10° ENE
STARLINK-1357 2.8 02:21:02 16° WSW 02:23:23 81° SSE 02:26:32 10° ENE
STARLINK-1211 3.7 02:19:39 10° WNW 02:23:44 56° SW 02:27:47 10° SE
STARLINK-1335 2.8 02:21:22 16° WSW 02:23:44 81° SSE 02:26:52 10° ENE
STARLINK-1327 2.8 02:21:40 16° WSW 02:24:04 82° SSE 02:27:12 10° ENE
STARLINK-1371 3.2 02:21:31 15° SW 02:24:17 76° SSE 02:27:47 10° ENE
STARLINK-1340 2.8 02:22:01 16° WSW 02:24:26 82° SSE 02:27:33 10° ENE
ERS-2 2.1 02:20:55 10° SSE 02:24:35 83° WSW 02:28:16 10° NNW
STARLINK-1356 2.8 02:22:21 16° WSW 02:24:45 83° SSE 02:27:53 10° ENE
STARLINK-1345 2.8 02:22:41 15° WSW 02:25:07 83° SSE 02:28:15 10° ENE
STARLINK-1355 2.8 02:22:59 15° WSW 02:25:26 84° SSE 02:28:34 10° ENE
STARLINK-1321 2.8 02:23:18 15° WSW 02:25:45 84° SSE 02:28:54 10° ENE
STARLINK-1244 4.3 02:21:54 10° WNW 02:26:01 58° NNE 02:30:06 10° E
STARLINK-1358 2.8 02:23:39 15° WSW 02:26:07 85° SSE 02:29:15 10° ENE
STARLINK-1341 3.1 02:23:29 15° SW 02:26:20 78° SSE 02:29:50 10° ENE
STARLINK-1332 2.8 02:23:57 15° WSW 02:26:26 85° SSE 02:29:33 10° ENE
STARLINK-1348 2.8 02:24:18 15° WSW 02:26:47 86° SSE 02:29:56 10° ENE
STARLINK-1330 2.8 02:24:36 15° WSW 02:27:07 86° SSE 02:30:15 10° ENE
STARLINK-1363 2.8 02:24:56 15° WSW 02:27:27 87° SSE 02:30:35 10° ENE
STARLINK-1337 2.8 02:25:15 15° WSW 02:27:47 87° SSE 02:30:55 10° ENE
IRS-1C 4.2 02:22:36 10° NNE 02:27:57 74° WNW 02:33:15 10° SSW
STARLINK-1342 2.8 02:25:35 14° WSW 02:28:08 87° SSE 02:31:15 10° ENE
STARLINK-1374 3.1 02:25:26 14° WSW 02:28:22 80° SSE 02:31:54 10° ENE
STARLINK-1364 2.8 02:25:55 14° WSW 02:28:29 88° SE 02:31:37 10° ENE
STARLINK-1245 3.7 02:24:40 10° WNW 02:28:42 52° SW 02:32:44 10° SE
STARLINK-1376 2.8 02:26:15 14° WSW 02:28:49 88° SSE 02:31:57 10° ENE
STARLINK-1360 2.8 02:26:30 14° WSW 02:29:06 89° SE 02:32:14 10° ENE
STARLINK-1361 2.8 02:26:56 14° WSW 02:29:32 89° SSE 02:32:40 10° ENE
STARLINK-1367 2.8 02:27:10 14° WSW 02:29:48 89° S 02:32:58 10° ENE
STARLINK-1366 2.8 02:27:33 14° WSW 02:30:10 90° N 02:33:18 10° ENE
STARLINK-1339 3.1 02:27:27 13° WSW 02:30:27 83° SSE 02:33:58 10° ENE
STARLINK-1138 4.2 02:26:53 10° WNW 02:31:00 61° NNE 02:35:06 10° ESE
SL-4 R/B 3.0 02:26:23 10° W 02:31:07 55° N 02:35:40 10° ENE
Cosmos 2297 Rocket 2.9 02:27:17 10° NW 02:32:14 32° WSW 02:37:09 10° SSW
STARLINK-1377 3.1 02:29:28 13° WSW 02:32:33 86° SSE 02:36:05 10° ENE
STARLINK-1233 3.8 02:29:39 10° WNW 02:33:39 48° SW 02:37:38 10° SE
STARLINK-1203 4.2 02:29:42 10° WNW 02:33:54 64° NNE 02:38:03 10° ESE
STARLINK-1353 3.1 02:31:17 12° WSW 02:34:26 88° SE 02:37:54 10° ENE
STARLINK-1143 4.1 02:31:52 10° WNW 02:36:00 64° NNE 02:40:07 10° ESE
Cosmos 2082 3.8 02:30:36 10° NW 02:36:09 57° WSW 02:41:38 10° S
STARLINK-1375 3.1 02:33:04 12° WSW 02:36:16 90° WSW 02:39:46 10° ENE
Cosmos 540 Rocket 3.5 02:32:45 10° SSW 02:37:54 82° ESE 02:43:04 10° NNE
ATLAS CENTAUR R/B 3.8 02:35:52 10° WNW 02:38:20 15° NNW 02:40:43 10° N
STARLINK-1204 3.9 02:34:40 10° WNW 02:38:38 44° SW 02:42:35 10° SE
STARLINK-1350 3.1 02:35:22 11° WSW 02:38:40 87° NNW 02:42:10 10° ENE
FALCON 9 DEB 3.8 02:35:51 10° W 02:39:13 51° NNW 02:42:37 10° ENE
STARLINK-1241 4.0 02:36:51 10° WNW 02:41:00 68° NNE 02:45:07 10° ESE
STARLINK-29 4.2 02:38:01 10° W 02:41:02 37° NNW 02:44:03 10° NE
STARLINK-1352 3.2 02:37:40 11° WSW 02:41:06 84° NNW 02:44:37 10° ENE
OE (NEXTSAT) 4.3 02:37:41 10° W 02:41:09 68° S 02:44:37 10° E
Landsat 5 3.8 02:36:59 10° SSE 02:41:28 81° ENE 02:46:01 10° NNW
Cosmos 1455 3.9 02:39:17 10° NW 02:41:46 17° W 02:44:15 10° SW
CZ-2D R/B 3.5 02:38:13 10° NNE 02:42:20 86° E 02:46:33 10° SSW
Cosmos 2278 3.9 02:36:44 10° SSW 02:42:21 75° ESE 02:48:01 10° NNE
STARLINK-1368 3.2 02:39:45 10° WSW 02:43:16 82° NNW 02:46:49 10° ENE
STARLINK-1238 4.0 02:39:39 10° WNW 02:43:34 41° SW 02:47:27 10° SSE
USA 234 4.1 02:37:39 10° ENE 02:43:47 41° SE 02:49:53 10° SSW
Meteor 1-28 Rocket 3.4 02:40:46 10° S 02:44:28 52° W 02:48:10 10° NNW
Meteor 1-11 4.3 02:38:53 10° SSW 02:44:30 69° WNW 02:50:06 10° N
SL-16 R/B 4.1 02:41:18 10° SW 02:45:07 17° W 02:48:58 10° NW
STARLINK-1369 3.2 02:41:42 10° WSW 02:45:11 79° NNW 02:48:42 10° ENE
STARLINK-1239 4.0 02:41:49 10° WNW 02:45:58 71° NNE 02:50:06 10° ESE
ATLAS CENTAUR R/B 3.4 02:43:53 10° W 02:47:09 28° SW 02:53:43 10° SSE
STARLINK-1372 3.3 02:44:08 10° WSW 02:47:40 77° NNW 02:51:13 10° ENE
Cosmos 2074 Rocket 4.1 02:41:38 10° SSW 02:47:53 69° W 02:54:12 10° N
Cosmos 2263 Rocket 3.3 02:42:42 10° NNW 02:48:12 50° ENE 02:53:35 10° SE
STARLINK-1201 4.1 02:44:41 10° WNW 02:48:32 38° SW 02:52:22 10° SSE
Cosmos 372 Rocket 3.9 02:44:44 10° NNW 02:49:52 80° WSW 02:55:00 10° SSE
STARLINK-1378 3.3 02:46:21 10° WSW 02:49:53 75° NNW 02:53:26 10° ENE
Cosmos 841 Rocket 3.6 02:44:58 10° SSW 02:50:13 75° WNW 02:55:29 10° NNE
STARLINK-1329 3.3 02:46:52 10° WSW 02:50:25 74° NNW 02:53:58 10° ENE
STARLINK-1240 3.9 02:46:49 10° WNW 02:50:58 75° NNE 02:55:06 10° ESE
STARLINK-1365 3.4 02:47:38 10° WSW 02:51:08 71° NNW 02:54:41 10° ENE
STARLINK-1379 3.3 02:48:35 10° WSW 02:52:06 73° NNW 02:55:39 10° ENE
STARLINK-1362 3.4 02:49:10 10° WSW 02:52:42 72° NNW 02:56:16 10° ENE
Cosmos-2242 4.4 02:50:07 10° NW 02:53:22 21° W 02:56:35 10° SW
STARLINK-1206 4.2 02:49:41 10° WNW 02:53:29 35° SW 02:57:15 10° SSE
Cosmos 1892 4.1 02:50:18 10° SSE 02:53:52 39° E 02:57:28 10° NNE
Cosmos 1869 3.4 02:50:19 10° N 02:54:15 77° E 02:58:06 10° SSE
COBE Rocket 4.2 02:49:48 10° S 02:54:32 48° W 02:59:27 10° NNW
Cosmos 1400 Rocket 3.3 02:50:53 10° NNW 02:54:47 42° W 02:58:40 10° SSW
STARLINK-1373 3.4 02:51:28 10° WSW 02:55:00 70° NNW 02:58:34 10° ENE
Cosmos 2221 2.6 02:51:16 10° N 02:55:37 89° W 02:59:58 10° S
STARLINK-1216 3.8 02:51:47 10° WNW 02:55:56 80° NNE 03:00:06 10° ESE
STARLINK-1390 3.4 02:53:33 10° WSW 02:57:04 68° NNW 03:00:36 10° ENE
STARLINK-1205 4.3 02:54:42 10° WNW 02:58:26 32° SW 03:02:08 10° SSE
Cosmos 2184 Rocket 4.2 02:53:22 10° SSW 02:59:27 59° WNW 03:05:33 10° N
SL-08 R/B 4.2 02:56:02 10° SSW 03:00:07 29° W 03:04:12 10° NW
CZ-4C R/B 3.3 02:56:54 10° S 03:00:24 52° W 03:03:59 10° NNW
STARLINK-1237 3.7 02:56:46 10° WNW 03:00:56 84° NNE 03:05:05 10° ESE
